Skip Page Navigation
NASA JPL Caltech
NASA Logo - Jet Propulsion Laboratory + View the NASA Portal
+ Center for Near-Earth Object Studies
JPL Home Earth Solar System Stars & Galaxies Technology
JPL Solar System Dynamics
BODIES ORBITS EPHEMERIDES TOOLS PHYSICAL DATA DISCOVERY FAQ SITE MAP
JPL Small-Body Database Browser
Search: [ help ]  
212046 (2005 CP67)
Classification: Main-belt Asteroid          SPK-ID: 2212046
Ephemeris | Orbit Diagram | Orbital Elements | Mission Design | Physical Parameters | Discovery Circumstances | Close-Approach Data ]

[ hide orbit diagram ]

For accurate long-term ephemerides, please instead use our Horizons system.This orbit viewer was implemented using two-body methods, and hence should not be used for determining accurate long-term trajectories (over several years or decades) or planetary encounter circumstances.


[ revert to old Java-based viewer ]

Orbital Elements at Epoch 2459000.5 (2020-May-31.0) TDB
Reference: JPL 14 (heliocentric ecliptic J2000)
 Element Value Uncertainty (1-sigma)   Units 
e .04286277481529203 5.4135e-08  
a 2.430975530825591 2.0217e-08 au
q 2.326777174066329 1.2747e-07 au
i 3.265854797060706 4.8864e-06 deg
node 61.86986660397285 0.00010225 deg
peri 153.8604961592972 0.00011895 deg
M 299.5910950584737 6.0012e-05 deg
tp 2459232.809928111112
(2021-Jan-18.30992811)
0.00023058 TDB
period 1384.424600991407
3.79
1.727e-05
4.728e-08
d
yr
n .260035829861878 3.2438e-09 deg/d
Q 2.535173887584854 2.1083e-08 au
  Orbit Determination Parameters
   # obs. used (total)      264  
   data-arc span      5950 days (16.29 yr)  
   first obs. used      2003-10-19  
   last obs. used      2020-02-02  
   planetary ephem.      DE431  
   SB-pert. ephem.      SB431-N16  
   condition code      0  
   norm. resid. RMS      .54592  
   source      ORB  
   producer      Otto Matic  
   solution date      2020-Feb-25 02:41:18  

Additional Information
 Earth MOID = 1.31939 au 
 Jupiter MOID = 2.42612 au 
 T_jup = 3.504 
[ show covariance matrix ]

Ephemeris | Orbit Diagram | Orbital Elements | Mission Design | Physical Parameters | Discovery Circumstances | Close-Approach Data ]

Physical Parameter Table
Parameter Symbol Value Units Sigma Reference Notes
absolute magnitude H 16.8   n/a MPO454522  

212046 (2005 CP67)          Discovered 2005-Feb-01 by NEAT at Palomar
Reference: 20090409/Numbers.arcLast Updated: 2009-04-10

[ show close-approach data ]
Alternate Designations
 2005 CP67 = 2007 TX127 
Ephemeris | Orbit Diagram | Orbital Elements | Mission Design | Physical Parameters | Discovery Circumstances | Close-Approach Data ]
ABOUT SSD CREDITS/AWARDS PRIVACY/COPYRIGHT GLOSSARY LINKS
FirstGov 2020-Oct-26 00:12 UT
(server date/time)  
NASA Home Page
Site Manager:   Ryan S. Park
Webmaster  Alan B. Chamberlin